START_TIME,STEP,MOV.,M29,t_acc.,H22,t_acc.,H26,t_acc.,H30,t_acc.
1979-07-19 09:00:31.760 ,0,0,0.,24.0,0.,24.0,0.,24.0,0.,24.0
1979-07-19 09:01:19.760 ,0,0,0.,24.0,0.,24.0,0.,24.0,0.,24.0
1979-07-19 09:01:43.760 ,1,1,0.,24.0,0.,24.0,0.,24.0,0.,24.0
1979-07-19 09:03:19.760 ,3,1,0.,24.0,0.,24.0,0.,24.0,0.,24.0
1979-07-19 09:05:19.760 ,5,0,0.,24.0,0.,24.0,0.,24.0,0.,24.0
1979-07-19 09:07:19.760 ,5,1,0.,24.0,0.,24.0,0.,24.0,0.,24.0
1979-07-19 09:08:55.760 ,5,1,0.,24.0,0.,24.0,0.,24.0,0.,24.0
1979-07-19 09:09:19.760 ,1,1,0.,24.0,0.,24.0,0.,24.0,0.,24.0
1979-07-19 09:09:43.760 ,2,1,0.,24.0,0.,24.0,0.,24.0,0.,24.0
1979-07-19 09:10:55.760 ,1,1,0.,24.0,0.,24.0,0.,24.0,0.,24.0
1979-07-19 09:11:19.760 ,2,1,0.,24.0,0.,24.0,0.,24.0,0.,24.0
1979-07-19 09:12:55.760 ,2,1,0.,24.0,0.,24.0,0.,24.0,0.,24.0
1979-07-19 09:13:19.760 ,6,1,0.,24.0,0.,24.0,0.,24.0,0.,24.0
1979-07-19 09:14:55.760 ,6,1,0.,24.0,0.,24.0,0.,24.0,0.,24.0
1979-07-19 09:15:19.760 ,5,1,0.,24.0,0.,24.0,0.,24.0,0.,24.0
1979-07-19 09:16:55.760 ,5,1,0.,24.0,0.,24.0,0.,24.0,0.,24.0
1979-07-19 09:18:55.760 ,5,0,0.,24.0,0.,24.0,0.,24.0,0.,24.0
1979-07-19 09:20:31.760 ,3,0,0.,24.0,0.,24.0,0.,24.0,0.,24.0
1979-07-19 09:20:55.760 ,2,1,0.,24.0,0.,24.0,0.,24.0,0.,24.0
1979-07-19 09:22:31.760 ,0,1,0.,24.0,0.,24.0,0.,24.0,0.,24.0
1979-07-19 09:22:55.760 ,0,0,0.,24.0,0.,24.0,0.,24.0,0.,24.0
1979-07-19 09:24:07.760 ,1,1,0.,24.0,0.,24.0,0.,24.0,0.,24.0
1979-07-19 09:24:31.760 ,1,0,0.,24.0,0.,24.0,0.,24.0,0.,24.0
1979-07-19 09:26:07.760 ,3,0,0.,24.0,0.,24.0,0.,24.0,0.,24.0
1979-07-19 09:26:31.760 ,4,1,0.,24.0,0.,24.0,0.,24.0,0.,24.0
1979-07-19 09:27:43.760 ,5,0,0.,24.0,0.,24.0,0.,24.0,0.,24.0
1979-07-19 09:28:31.760 ,6,0,0.,24.0,0.,24.0,0.,24.0,0.,24.0
1979-07-19 09:28:55.760 ,7,1,0.,24.0,0.,24.0,0.,24.0,0.,24.0
1979-07-19 09:29:19.760 ,7,0,0.,24.0,0.,24.0,0.,24.0,0.,24.0
1979-07-19 09:30:07.760 ,7,0,0.,24.0,0.,24.0,0.,24.0,0.,24.0
1979-07-19 09:30:31.760 ,6,1,0.,24.0,0.,24.0,0.,24.0,0.,24.0
1979-07-19 09:30:55.760 ,6,0,,0,,0,,0,,0
1979-07-19 09:32:07.760 ,4,1,0.,24.0,0.,24.0,0.,24.0,0.,24.0
1979-07-19 09:34:07.760 ,2,0,0.,24.0,0.,24.0,0.,24.0,0.,24.0
1979-07-19 09:34:31.760 ,1,1,0.,24.0,0.,24.0,0.,24.0,0.,24.0
1979-07-19 09:36:07.760 ,0,1,0.,24.0,0.,24.0,0.,24.0,0.,24.0
1979-07-19 09:36:31.760 ,0,0,0.,24.0,0.,24.0,0.,24.0,0.,24.0
1979-07-19 09:37:43.760 ,2,1,0.,24.0,0.,24.0,0.,24.0,0.,24.0
1979-07-19 09:38:07.760 ,2,0,0.,24.0,0.,24.0,0.,24.0,0.,24.0
1979-07-19 09:39:19.760 ,4,1,0.,24.0,0.,24.0,0.,24.0,0.,24.0
1979-07-19 09:39:43.760 ,4,0,0.,24.0,0.,24.0,0.,24.0,0.,24.0
1979-07-19 09:41:19.760 ,6,0,0.,24.0,0.,24.0,0.,24.0,0.,24.0
1979-07-19 09:41:43.760 ,7,1,0.,24.0,0.,24.0,0.,24.0,0.,24.0
1979-07-19 09:43:43.760 ,6,0,0.,24.0,0.,24.0,0.,24.0,0.,24.0
1979-07-19 09:44:07.760 ,5,1,0.,24.0,0.,24.0,0.,24.0,0.,24.0
1979-07-19 09:44:31.760 ,5,0,0.,24.0,0.,24.0,0.,24.0,0.,24.0
1979-07-19 09:44:55.760 ,4,1,0.,24.0,0.,24.0,0.,24.0,0.,24.0
1979-07-19 09:45:19.760 ,4,0,0.,24.0,0.,24.0,0.,24.0,0.,24.0
1979-07-19 09:45:43.760 ,3,1,0.,24.0,0.,24.0,0.,24.0,0.,24.0
1979-07-19 09:46:07.760 ,3,0,0.,24.0,0.,24.0,0.,24.0,0.,24.0
1979-07-19 09:46:55.760 ,2,0,0.,24.0,0.,24.0,0.,24.0,0.,24.0
1979-07-19 09:47:19.760 ,1,1,0.,24.0,0.,24.0,0.,24.0,0.,24.0
1979-07-19 09:48:31.760 ,0,0,0.,24.0,0.,24.0,0.,24.0,0.,24.0
1979-07-19 09:48:55.760 ,0,1,0.,24.0,0.,24.0,0.,24.0,0.,24.0
1979-07-19 09:49:19.760 ,0,0,0.,24.0,0.,24.0,0.,24.0,0.,24.0
1979-07-19 09:49:43.760 ,1,1,0.,24.0,0.,24.0,0.,24.0,0.,24.0
1979-07-19 09:50:07.760 ,1,0,0.,24.0,0.,24.0,0.,24.0,0.,24.0
1979-07-19 09:50:31.760 ,2,1,0.,24.0,0.,24.0,0.,24.0,0.,24.0
1979-07-19 09:50:55.760 ,2,0,0.,24.0,0.,24.0,0.,24.0,0.,24.0
1979-07-19 09:51:19.760 ,3,1,0.,24.0,0.,24.0,0.,24.0,0.,24.0
1979-07-19 09:51:43.760 ,3,0,0.,24.0,0.,24.0,0.,24.0,0.,24.0
1979-07-19 09:52:07.760 ,4,1,0.,24.0,0.,24.0,0.,24.0,0.,24.0
1979-07-19 09:52:31.760 ,4,0,0.,24.0,0.,24.0,0.,24.0,0.,24.0
1979-07-19 09:52:55.760 ,5,1,0.,24.0,0.,24.0,0.,24.0,0.,24.0
1979-07-19 09:53:19.760 ,5,0,0.,24.0,0.,24.0,0.,24.0,0.,24.0
1979-07-19 09:53:43.760 ,6,1,0.,24.0,0.,24.0,0.,24.0,0.,24.0
1979-07-19 09:54:07.760 ,6,0,0.,24.0,0.,24.0,0.,24.0,0.,24.0
1979-07-19 09:54:31.760 ,7,0,0.,24.0,0.,24.0,0.,24.0,0.,24.0
1979-07-19 09:54:55.760 ,7,0,0.,24.0,0.,24.0,0.,24.0,0.,24.0
1979-07-19 09:55:19.760 ,5,1,0.,24.0,0.,24.0,0.,24.0,0.,24.0
1979-07-19 09:55:43.760 ,1,1,0.,24.0,0.,24.0,0.,24.0,0.,24.0
1979-07-19 09:56:07.760 ,2,1,0.,24.0,0.,24.0,0.,24.0,0.,24.0
1979-07-19 09:56:31.760 ,6,1,0.,24.0,0.,24.0,0.,24.0,0.,24.0
1979-07-19 09:56:55.760 ,5,1,0.,24.0,0.,24.0,0.,24.0,0.,24.0
1979-07-19 09:57:19.760 ,1,1,0.,24.0,0.,24.0,0.,24.0,0.,24.0
1979-07-19 09:57:43.760 ,2,1,0.,24.0,0.,24.0,0.,24.0,0.,24.0
1979-07-19 09:58:07.760 ,6,1,0.,24.0,0.,24.0,0.,24.0,0.,24.0
1979-07-19 09:58:31.760 ,5,1,0.,24.0,0.,24.0,0.,24.0,0.,24.0
1979-07-19 09:58:55.760 ,1,1,0.,24.0,0.,24.0,0.,24.0,0.,24.0
1979-07-19 09:59:19.760 ,2,1,0.,24.0,0.,24.0,0.,24.0,0.,24.0
1979-07-19 09:59:43.760 ,6,1,0.,24.0,0.,24.0,0.,24.0,0.,24.0
1979-07-19 10:00:07.760 ,5,1,0.,24.0,0.,24.0,0.,24.0,0.,24.0
1979-07-19 10:00:31.760 ,1,1,0.,24.0,0.,24.0,0.,24.0,0.,24.0
1979-07-19 10:00:55.760 ,2,1,0.,24.0,0.,24.0,0.,24.0,0.,24.0
1979-07-19 10:01:19.760 ,6,1,0.,24.0,0.,24.0,0.,24.0,0.,24.0
1979-07-19 10:01:43.760 ,5,1,0.,24.0,0.,24.0,0.,24.0,0.,24.0
1979-07-19 10:02:07.760 ,1,1,0.,24.0,0.,24.0,0.,24.0,0.,24.0
1979-07-19 10:02:31.760 ,2,1,0.,24.0,0.,24.0,0.,24.0,0.,24.0
1979-07-19 10:02:55.760 ,6,1,0.,24.0,0.,24.0,0.,24.0,0.,24.0
1979-07-19 10:03:19.760 ,5,1,0.,24.0,0.,24.0,0.,24.0,0.,24.0
1979-07-19 10:03:43.760 ,1,1,0.,24.0,0.,24.0,0.,24.0,0.,24.0
1979-07-19 10:04:07.750 ,2,1,0.,24.0,0.,24.0,0.,24.0,0.,24.0
1979-07-19 10:04:31.760 ,6,1,0.,24.0,0.,24.0,0.,24.0,0.,24.0
1979-07-19 10:04:55.760 ,5,1,0.,24.0,0.,24.0,0.,24.0,0.,24.0
1979-07-19 10:05:19.760 ,1,1,0.,24.0,0.,24.0,0.,24.0,0.,24.0
1979-07-19 10:05:43.760 ,0,0,0.,24.0,0.,24.0,0.,24.0,0.,24.0
1979-07-19 10:06:07.760 ,0,0,0.,24.0,0.,24.0,0.,24.0,0.,24.0
1979-07-19 10:06:32.350 ,7,1,0.,24.0,0.,24.0,0.,24.0,0.,24.0
1979-07-19 10:06:55.760 ,7,0,0.,24.0,0.,24.0,0.,24.0,0.,24.0
1979-07-19 10:07:19.760 ,4,1,0.,24.0,0.,24.0,0.,24.0,0.,24.0
1979-07-19 10:07:43.760 ,4,0,0.,24.0,0.,24.0,0.,24.0,0.,24.0
1979-07-19 10:08:07.760 ,3,1,0.,24.0,0.,24.0,0.,24.0,0.,24.0
1979-07-19 10:08:31.760 ,3,0,0.,24.0,0.,24.0,0.,24.0,0.,24.0
1979-07-19 10:08:55.760 ,2,1,0.,24.0,0.,24.0,0.,24.0,0.,24.0
1979-07-19 10:09:19.760 ,2,0,0.,24.0,0.,24.0,0.,24.0,0.,24.0
1979-07-19 10:09:43.760 ,1,1,0.,24.0,0.,24.0,0.,24.0,0.,24.0
1979-07-19 10:10:07.760 ,1,0,0.,24.0,0.,24.0,0.,24.0,0.,24.0
1979-07-19 10:10:31.760 ,0,1,0.,24.0,0.,24.0,0.,24.0,0.,24.0
1979-07-19 10:10:55.760 ,0,0,0.,24.0,0.,24.0,0.,24.0,0.,24.0
1979-07-19 10:11:19.760 ,0,1,0.,24.0,0.,24.0,0.,24.0,0.,24.0
1979-07-19 10:11:43.760 ,0,0,0.,24.0,0.,24.0,0.,24.0,0.,24.0
1979-07-19 10:12:07.760 ,1,1,0.,24.0,0.,24.0,0.,24.0,0.,24.0
1979-07-19 10:12:31.760 ,1,0,0.,24.0,0.,24.0,0.,24.0,0.,24.0
1979-07-19 10:12:55.760 ,2,1,0.,24.0,0.,24.0,0.,24.0,0.,24.0
1979-07-19 10:13:19.760 ,2,0,0.,24.0,0.,24.0,0.,24.0,0.,24.0
1979-07-19 10:13:43.760 ,3,1,0.,24.0,0.,24.0,0.,24.0,0.,24.0
1979-07-19 10:14:07.760 ,3,0,0.,24.0,0.,24.0,0.,24.0,0.,24.0
1979-07-19 10:14:31.760 ,4,1,0.,24.0,0.,24.0,0.,24.0,0.,24.0
1979-07-19 10:14:55.760 ,4,0,0.,24.0,0.,24.0,0.,24.0,0.,24.0
1979-07-19 10:15:19.760 ,5,1,0.,24.0,0.,24.0,0.,24.0,0.,24.0
1979-07-19 10:15:43.760 ,5,0,0.,24.0,0.,24.0,0.,24.0,0.,24.0
1979-07-19 10:16:07.760 ,6,1,0.,24.0,0.,24.0,0.,24.0,0.,24.0
1979-07-19 10:16:31.760 ,6,0,0.,24.0,0.,24.0,0.,24.0,0.,24.0
1979-07-19 10:16:55.760 ,7,1,0.,24.0,0.,24.0,0.,24.0,0.,24.0
1979-07-19 10:17:19.760 ,7,0,0.,24.0,0.,24.0,0.,24.0,0.,24.0
1979-07-19 10:17:43.760 ,7,1,0.,24.0,0.,24.0,0.,24.0,0.,24.0
1979-07-19 10:18:07.760 ,7,0,0.,24.0,0.,24.0,0.,24.0,0.,24.0
1979-07-19 10:18:31.760 ,6,1,0.,24.0,0.,24.0,0.,24.0,0.,24.0
1979-07-19 10:18:55.760 ,6,0,0.,24.0,0.,24.0,0.,24.0,0.,24.0
1979-07-19 10:19:19.760 ,5,1,0.,24.0,0.,24.0,0.,24.0,0.,24.0
1979-07-19 10:19:43.760 ,5,0,0.,24.0,0.,24.0,0.,24.0,0.,24.0
1979-07-19 10:20:07.750 ,4,1,0.,24.0,0.,24.0,0.,24.0,0.,24.0
1979-07-19 10:20:31.750 ,4,0,0.,24.0,0.,24.0,0.,24.0,0.,24.0
1979-07-19 10:20:55.750 ,3,1,0.,24.0,0.,24.0,0.,24.0,0.,24.0
1979-07-19 10:21:19.750 ,3,0,0.,24.0,0.,24.0,0.,24.0,0.,24.0
1979-07-19 10:21:43.750 ,2,1,0.,24.0,0.,24.0,0.,24.0,0.,24.0
1979-07-19 10:22:07.750 ,2,0,0.,24.0,0.,24.0,0.,24.0,0.,24.0
1979-07-19 10:22:31.750 ,1,1,0.,24.0,0.,24.0,0.,24.0,0.,24.0
1979-07-19 10:22:55.750 ,1,0,0.,24.0,0.,24.0,0.,24.0,0.,24.0
1979-07-19 10:23:19.750 ,0,1,0.,24.0,0.,24.0,0.,24.0,0.,24.0
1979-07-19 10:23:43.750 ,0,0,0.,24.0,0.,24.0,0.,24.0,0.,24.0
1979-07-19 10:24:07.750 ,0,1,0.,24.0,0.,24.0,0.,24.0,0.,24.0
1979-07-19 10:24:31.750 ,0,0,0.,24.0,0.,24.0,0.,24.0,0.,24.0
1979-07-19 10:24:55.750 ,1,1,0.,24.0,0.,24.0,0.,24.0,0.,24.0
1979-07-19 10:25:19.750 ,1,0,0.,24.0,0.,24.0,0.,24.0,0.,24.0
1979-07-19 10:25:43.750 ,2,1,0.,24.0,0.,24.0,0.,24.0,0.,24.0
1979-07-19 10:26:07.750 ,2,0,0.,24.0,0.,24.0,0.,24.0,0.,24.0
1979-07-19 10:26:31.750 ,3,1,0.,24.0,0.,24.0,0.,24.0,0.,24.0
1979-07-19 10:26:55.750 ,3,0,0.,24.0,0.,24.0,0.,24.0,0.,24.0
1979-07-19 10:27:19.750 ,4,1,0.,24.0,0.,24.0,0.,24.0,0.,24.0
1979-07-19 10:27:43.750 ,4,0,0.,24.0,0.,24.0,0.,24.0,0.,24.0
1979-07-19 10:28:07.750 ,5,1,0.,24.0,0.,24.0,0.,24.0,0.,24.0
1979-07-19 10:28:31.750 ,5,0,0.,24.0,0.,24.0,0.,24.0,0.,24.0
1979-07-19 10:28:55.750 ,6,1,0.,24.0,0.,24.0,0.,24.0,0.,24.0
1979-07-19 10:29:19.750 ,6,0,0.,24.0,0.,24.0,0.,24.0,0.,24.0
1979-07-19 10:29:43.750 ,7,1,0.,24.0,0.,24.0,0.,24.0,0.,24.0
1979-07-19 10:30:07.750 ,7,0,0.,24.0,0.,24.0,0.,24.0,0.,24.0
1979-07-19 10:30:31.750 ,7,1,0.,24.0,0.,24.0,0.,24.0,0.,24.0
1979-07-19 10:30:55.750 ,7,0,0.,24.0,0.,24.0,0.,24.0,0.,24.0
1979-07-19 10:31:19.750 ,6,1,0.,24.0,0.,24.0,0.,24.0,0.,24.0
1979-07-19 10:31:43.750 ,6,0,0.,24.0,0.,24.0,0.,24.0,0.,24.0
1979-07-19 10:32:07.750 ,5,1,0.,24.0,0.,24.0,0.,24.0,0.,24.0
1979-07-19 10:32:31.750 ,5,0,0.,24.0,0.,24.0,0.,24.0,0.,24.0
1979-07-19 10:32:55.750 ,4,1,0.,24.0,0.,24.0,0.,24.0,0.,24.0
1979-07-19 10:33:19.750 ,4,0,0.,24.0,0.,24.0,0.,24.0,0.,24.0
1979-07-19 10:33:43.750 ,3,1,0.,24.0,0.,24.0,0.,24.0,0.,24.0
1979-07-19 10:34:07.750 ,3,0,0.,24.0,0.,24.0,0.,24.0,0.,24.0
1979-07-19 10:34:31.750 ,2,1,0.,24.0,0.,24.0,0.,24.0,0.,24.0
1979-07-19 10:34:55.750 ,2,0,0.,24.0,0.,24.0,0.,24.0,0.,24.0
1979-07-19 10:35:19.750 ,1,1,0.,24.0,0.,24.0,0.,24.0,0.,24.0
1979-07-19 10:35:43.750 ,1,0,0.,24.0,0.,24.0,0.,24.0,0.,24.0
1979-07-19 10:36:07.750 ,0,1,0.,24.0,0.,24.0,0.,24.0,0.,24.0
1979-07-19 10:36:31.750 ,0,0,0.,24.0,0.,24.0,0.,24.0,0.,24.0
1979-07-19 10:36:55.750 ,0,1,0.,24.0,0.,24.0,0.,24.0,0.,24.0
1979-07-19 10:37:19.750 ,0,0,0.,24.0,0.,24.0,0.,24.0,0.,24.0
1979-07-19 10:37:43.750 ,1,1,0.,24.0,0.,24.0,0.,24.0,0.,24.0
1979-07-19 10:38:07.750 ,1,0,0.,24.0,0.,24.0,0.,24.0,0.,24.0
1979-07-19 10:38:31.750 ,2,1,0.,24.0,0.,24.0,0.,24.0,0.,24.0
1979-07-19 10:38:55.750 ,2,0,0.,24.0,0.,24.0,0.,24.0,0.,24.0
1979-07-19 10:39:19.750 ,3,1,0.,24.0,0.,24.0,0.,24.0,0.,24.0
1979-07-19 10:39:43.750 ,3,0,0.,24.0,0.,24.0,0.,24.0,0.,24.0
1979-07-19 10:40:07.750 ,4,1,0.,24.0,0.,24.0,0.,24.0,0.,24.0
1979-07-19 10:40:31.750 ,4,0,0.,24.0,0.,24.0,0.,24.0,0.,24.0
1979-07-19 10:40:55.750 ,5,1,0.,24.0,0.,24.0,0.,24.0,0.,24.0
1979-07-19 10:41:19.750 ,5,0,0.,24.0,0.,24.0,0.,24.0,0.,24.0
1979-07-19 10:41:43.750 ,6,1,0.,24.0,0.,24.0,0.,24.0,0.,24.0
1979-07-19 10:42:07.750 ,6,0,0.,24.0,0.,24.0,0.,24.0,0.,24.0
1979-07-19 10:42:31.750 ,7,0,0.,24.0,0.,24.0,0.,24.0,0.,24.0
1979-07-19 10:42:55.750 ,7,0,0.,24.0,0.,24.0,0.,24.0,0.,24.0
1979-07-19 10:43:19.750 ,5,1,0.,24.0,0.,24.0,0.,24.0,0.,24.0
1979-07-19 10:43:43.750 ,1,1,0.,24.0,0.,24.0,0.,24.0,0.,24.0
1979-07-19 10:44:07.750 ,2,1,0.,24.0,0.,24.0,0.,24.0,0.,24.0
1979-07-19 10:44:31.750 ,6,1,0.,24.0,0.,24.0,0.,24.0,0.,24.0
1979-07-19 10:44:55.750 ,5,1,0.,24.0,0.,24.0,0.,24.0,0.,24.0
1979-07-19 10:45:19.750 ,1,1,0.,24.0,0.,24.0,0.,24.0,0.,24.0
1979-07-19 10:45:43.750 ,2,1,0.,24.0,0.,24.0,0.,24.0,0.,24.0
1979-07-19 10:46:07.750 ,6,1,0.,24.0,0.,24.0,0.,24.0,0.,24.0
1979-07-19 10:46:31.750 ,5,1,0.,24.0,0.,24.0,0.,24.0,0.,24.0
1979-07-19 10:46:55.750 ,1,1,0.,24.0,0.,24.0,0.,24.0,0.,24.0
1979-07-19 10:47:19.750 ,2,1,0.,24.0,0.,24.0,0.,24.0,0.,24.0
1979-07-19 10:47:43.750 ,6,1,0.,24.0,0.,24.0,0.,24.0,0.,24.0
1979-07-19 10:48:07.750 ,5,1,0.,24.0,0.,24.0,0.,24.0,0.,24.0
1979-07-19 10:48:31.750 ,1,1,0.,24.0,0.,24.0,0.,24.0,0.,24.0
1979-07-19 10:48:55.750 ,2,1,0.,24.0,0.,24.0,0.,24.0,0.,24.0
1979-07-19 10:49:19.750 ,6,1,0.,24.0,0.,24.0,0.,24.0,0.,24.0
1979-07-19 10:49:43.750 ,5,1,0.,24.0,0.,24.0,0.,24.0,0.,24.0
1979-07-19 10:50:07.750 ,1,1,0.,24.0,0.,24.0,0.,24.0,0.,24.0
1979-07-19 10:50:31.750 ,4,1,,0,,0,,0,,0
1979-07-19 10:50:55.750 ,7,1,,0,,0,,0,,0
1979-07-19 10:51:19.750 ,5,1,0.,24.0,0.,24.0,0.,24.0,0.,24.0
1979-07-19 10:51:43.750 ,0,1,,0,,0,,0,,0
1979-07-19 10:52:28.750 ,0,0,,0,,0,,0,,0
1979-07-19 10:52:31.750 ,0,0,,0,,0,,0,,0
1979-07-19 10:52:56.350 ,0,0,0.,24.0,0.,24.0,0.,24.0,0.,24.0
1979-07-19 10:53:19.750 ,0,0,,0,,0,,0,,0
1979-07-19 10:53:43.750 ,0,0,,0,,0,,0,,0
1979-07-19 10:54:07.750 ,0,0,,0,,0,,0,,0
1979-07-19 10:54:32.350 ,0,0,0.,24.0,0.,24.0,0.,24.0,0.,24.0
1979-07-19 10:54:55.750 ,0,0,0.,24.0,0.,24.0,0.,24.0,0.,24.0
1979-07-19 10:55:19.750 ,4,1,0.,24.0,0.,24.0,0.,24.0,0.,24.0
1979-07-19 10:55:43.750 ,4,0,0.,24.0,0.,24.0,0.,24.0,0.,24.0
1979-07-19 10:56:07.750 ,3,1,0.,24.0,0.,24.0,0.,24.0,0.,24.0
1979-07-19 10:56:31.750 ,3,0,0.,24.0,0.,24.0,0.,24.0,0.,24.0
1979-07-19 10:56:55.750 ,2,1,0.,24.0,0.,24.0,0.,24.0,0.,24.0
1979-07-19 10:57:19.750 ,2,0,0.,24.0,0.,24.0,0.,24.0,0.,24.0
1979-07-19 10:57:43.750 ,1,1,0.,24.0,0.,24.0,0.,24.0,0.,24.0
1979-07-19 10:58:07.750 ,1,0,0.,24.0,0.,24.0,0.,24.0,0.,24.0
1979-07-19 10:58:31.750 ,0,1,0.,24.0,0.,24.0,0.,24.0,0.,24.0
1979-07-19 10:58:55.750 ,0,0,0.,24.0,0.,24.0,0.,24.0,0.,24.0
1979-07-19 10:59:19.750 ,0,1,0.,24.0,0.,24.0,0.,24.0,0.,24.0
1979-07-19 10:59:43.750 ,0,0,0.,24.0,0.,24.0,0.,24.0,0.,24.0
1979-07-19 11:00:07.750 ,1,1,0.,24.0,0.,24.0,0.,24.0,0.,24.0
1979-07-19 11:00:31.750 ,1,0,0.,24.0,0.,24.0,0.,24.0,0.,24.0
1979-07-19 11:00:55.750 ,2,1,0.,24.0,0.,24.0,0.,24.0,0.,24.0
1979-07-19 11:01:19.750 ,2,0,0.,24.0,0.,24.0,0.,24.0,0.,24.0
1979-07-19 11:01:43.750 ,3,1,0.,24.0,0.,24.0,0.,24.0,0.,24.0
1979-07-19 11:02:07.750 ,3,0,0.,24.0,0.,24.0,0.,24.0,0.,24.0
1979-07-19 11:02:31.750 ,4,1,0.,24.0,0.,24.0,0.,24.0,0.,24.0
1979-07-19 11:02:55.750 ,4,0,0.,24.0,0.,24.0,0.,24.0,0.,24.0
1979-07-19 11:03:19.750 ,5,1,0.,24.0,0.,24.0,0.,24.0,0.,24.0
1979-07-19 11:03:43.750 ,5,0,0.,24.0,0.,24.0,0.,24.0,0.,24.0
1979-07-19 11:04:07.750 ,6,1,0.,24.0,0.,24.0,0.,24.0,0.,24.0
1979-07-19 11:04:31.750 ,6,0,0.,24.0,0.,24.0,0.,24.0,0.,24.0
1979-07-19 11:04:55.750 ,7,1,0.,24.0,0.,24.0,0.,24.0,0.,24.0
1979-07-19 11:05:19.750 ,7,0,0.,24.0,0.,24.0,0.,24.0,0.,24.0
1979-07-19 11:05:43.750 ,7,1,0.,24.0,0.,24.0,0.,24.0,0.,24.0
1979-07-19 11:06:07.750 ,7,0,0.,24.0,0.,24.0,0.,24.0,0.,24.0
1979-07-19 11:06:31.750 ,6,1,0.,24.0,0.,24.0,0.,24.0,0.,24.0
1979-07-19 11:06:55.750 ,6,0,0.,24.0,0.,24.0,0.,24.0,0.,24.0
1979-07-19 11:07:19.750 ,5,1,0.,24.0,0.,24.0,0.,24.0,0.,24.0
1979-07-19 11:07:43.750 ,5,0,0.,24.0,0.,24.0,0.,24.0,0.,24.0
1979-07-19 11:08:07.750 ,4,1,0.,24.0,0.,24.0,0.,24.0,0.,24.0
1979-07-19 11:08:31.750 ,4,0,0.,24.0,0.,24.0,0.,24.0,0.,24.0
1979-07-19 11:08:55.750 ,3,1,0.,24.0,0.,24.0,0.,24.0,0.,24.0
1979-07-19 11:09:19.750 ,3,0,0.,24.0,0.,24.0,0.,24.0,0.,24.0
1979-07-19 11:09:43.750 ,2,1,0.,24.0,0.,24.0,0.,24.0,0.,24.0
1979-07-19 11:10:07.750 ,2,0,0.,24.0,0.,24.0,0.,24.0,0.,24.0
1979-07-19 11:10:31.750 ,1,1,0.,24.0,0.,24.0,0.,24.0,0.,24.0
1979-07-19 11:10:55.750 ,1,0,0.,24.0,0.,24.0,0.,24.0,0.,24.0
1979-07-19 11:11:19.750 ,0,1,0.,24.0,0.,24.0,0.,24.0,0.,24.0
1979-07-19 11:11:43.750 ,0,0,0.,24.0,0.,24.0,0.,24.0,0.,24.0
1979-07-19 11:12:07.750 ,0,1,0.,24.0,0.,24.0,0.,24.0,0.,24.0
1979-07-19 11:12:31.750 ,0,0,0.,24.0,0.,24.0,0.,24.0,0.,24.0
1979-07-19 11:12:55.750 ,1,1,0.,24.0,0.,24.0,0.,24.0,0.,24.0
1979-07-19 11:13:19.750 ,1,0,0.,24.0,0.,24.0,0.,24.0,0.,24.0
1979-07-19 11:13:43.750 ,2,1,0.,24.0,0.,24.0,0.,24.0,0.,24.0
1979-07-19 11:14:07.750 ,2,0,0.,24.0,0.,24.0,0.,24.0,0.,24.0
1979-07-19 11:14:31.750 ,3,1,0.,24.0,0.,24.0,0.,24.0,0.,24.0
1979-07-19 11:14:55.750 ,3,0,0.,24.0,0.,24.0,0.,24.0,0.,24.0
1979-07-19 11:15:19.750 ,4,1,0.,24.0,0.,24.0,0.,24.0,0.,24.0
1979-07-19 11:15:43.750 ,4,0,0.,24.0,0.,24.0,0.,24.0,0.,24.0
1979-07-19 11:16:07.750 ,5,1,0.,24.0,0.,24.0,0.,24.0,0.,24.0
1979-07-19 11:16:31.750 ,5,0,0.,24.0,0.,24.0,0.,24.0,0.,24.0
1979-07-19 11:16:55.750 ,6,1,0.,24.0,0.,24.0,0.,24.0,0.,24.0
1979-07-19 11:17:19.750 ,6,0,0.,24.0,0.,24.0,0.,24.0,0.,24.0
1979-07-19 11:17:43.750 ,7,1,0.,24.0,0.,24.0,0.,24.0,0.,24.0
1979-07-19 11:18:07.750 ,7,0,0.,24.0,0.,24.0,0.,24.0,0.,24.0
1979-07-19 11:18:55.750 ,0,0,0.,24.0,0.,24.0,0.,24.0,0.,24.0
1979-07-19 11:19:19.750 ,6,1,0.,24.0,0.,24.0,0.,24.0,0.,24.0
1979-07-19 11:19:43.750 ,6,0,0.,24.0,0.,24.0,0.,24.0,0.,24.0
1979-07-19 11:20:07.750 ,5,1,0.,24.0,0.,24.0,0.,24.0,0.,24.0
1979-07-19 11:20:31.750 ,5,0,0.,24.0,0.,24.0,0.,24.0,0.,24.0
1979-07-19 11:20:55.750 ,4,1,0.,24.0,0.,24.0,0.,24.0,0.,24.0
1979-07-19 11:21:19.750 ,4,0,0.,24.0,0.,24.0,0.,24.0,0.,24.0
1979-07-19 11:21:43.750 ,3,1,0.,24.0,0.,24.0,0.,24.0,0.,24.0
1979-07-19 11:22:07.750 ,3,0,0.,24.0,0.,24.0,0.,24.0,0.,24.0
1979-07-19 11:22:31.750 ,2,1,0.,24.0,0.,24.0,0.,24.0,0.,24.0
1979-07-19 11:22:55.750 ,2,0,0.,24.0,0.,24.0,0.,24.0,0.,24.0
1979-07-19 11:23:19.750 ,1,1,0.,24.0,0.,24.0,0.,24.0,0.,24.0
1979-07-19 11:23:43.750 ,1,0,0.,24.0,0.,24.0,0.,24.0,0.,24.0
1979-07-19 11:24:07.750 ,0,1,0.,24.0,0.,24.0,0.,24.0,0.,24.0
1979-07-19 11:24:31.750 ,0,0,0.,24.0,0.,24.0,0.,24.0,0.,24.0
1979-07-19 11:24:55.750 ,0,1,0.,24.0,0.,24.0,0.,24.0,0.,24.0
1979-07-19 11:25:19.750 ,0,0,0.,24.0,0.,24.0,0.,24.0,0.,24.0
1979-07-19 11:25:43.750 ,1,1,0.,24.0,0.,24.0,0.,24.0,0.,24.0
1979-07-19 11:26:07.750 ,1,0,0.,24.0,0.,24.0,0.,24.0,0.,24.0
1979-07-19 11:26:31.750 ,2,1,0.,24.0,0.,24.0,0.,24.0,0.,24.0
1979-07-19 11:26:55.750 ,2,0,0.,24.0,0.,24.0,0.,24.0,0.,24.0
1979-07-19 11:27:19.750 ,3,1,0.,24.0,0.,24.0,0.,24.0,0.,24.0
1979-07-19 11:27:43.750 ,3,0,0.,24.0,0.,24.0,0.,24.0,0.,24.0
1979-07-19 11:28:07.750 ,4,1,0.,24.0,0.,24.0,0.,24.0,0.,24.0
1979-07-19 11:28:31.750 ,4,0,0.,24.0,0.,24.0,0.,24.0,0.,24.0
1979-07-19 11:28:55.750 ,5,1,0.,24.0,0.,24.0,0.,24.0,0.,24.0
1979-07-19 11:29:19.750 ,5,0,0.,24.0,0.,24.0,0.,24.0,0.,24.0
1979-07-19 11:29:43.750 ,6,1,0.,24.0,0.,24.0,0.,24.0,0.,24.0
1979-07-19 11:30:07.750 ,6,0,0.,24.0,0.,24.0,0.,24.0,0.,24.0
1979-07-19 11:30:31.750 ,7,0,0.,24.0,0.,24.0,0.,24.0,0.,24.0
1979-07-19 11:30:55.750 ,7,0,0.,24.0,0.,24.0,0.,24.0,0.,24.0
1979-07-19 11:31:19.750 ,5,1,0.,24.0,0.,24.0,0.,24.0,0.,24.0
1979-07-19 11:31:43.750 ,1,1,0.,24.0,0.,24.0,0.,24.0,0.,24.0
1979-07-19 11:32:07.750 ,2,1,0.,24.0,0.,24.0,0.,24.0,0.,24.0
1979-07-19 11:32:31.750 ,6,1,0.,24.0,0.,24.0,0.,24.0,0.,24.0
1979-07-19 11:32:55.750 ,5,1,0.,24.0,0.,24.0,0.,24.0,0.,24.0
1979-07-19 11:33:19.750 ,1,1,0.,24.0,0.,24.0,0.,24.0,0.,24.0
1979-07-19 11:33:43.750 ,2,1,0.,24.0,0.,24.0,0.,24.0,0.,24.0
1979-07-19 11:34:07.750 ,6,1,0.,24.0,0.,24.0,0.,24.0,0.,24.0
1979-07-19 11:34:31.750 ,5,1,0.,24.0,0.,24.0,0.,24.0,0.,24.0
1979-07-19 11:34:55.750 ,1,1,0.,24.0,0.,24.0,0.,24.0,0.,24.0
1979-07-19 11:35:19.750 ,2,1,0.,24.0,0.,24.0,0.,24.0,0.,24.0
1979-07-19 11:35:43.750 ,7,1,,0,,0,,0,,0
1979-07-19 11:36:07.750 ,5,1,0.,24.0,0.,24.0,0.,24.0,0.,24.0
1979-07-19 11:36:31.750 ,1,1,0.,24.0,0.,24.0,0.,24.0,0.,24.0
1979-07-19 11:36:55.750 ,2,1,0.,24.0,0.,24.0,0.,24.0,0.,24.0
1979-07-19 11:37:19.750 ,6,1,0.,24.0,0.,24.0,0.,24.0,0.,24.0
1979-07-19 11:37:43.750 ,5,1,0.,24.0,0.,24.0,0.,24.0,0.,24.0
1979-07-19 11:38:07.750 ,1,1,0.,24.0,0.,24.0,0.,24.0,0.,24.0
1979-07-19 11:38:31.750 ,2,1,0.,24.0,0.,24.0,0.,24.0,0.,24.0
1979-07-19 11:38:55.750 ,6,1,0.,24.0,0.,24.0,0.,24.0,0.,24.0
1979-07-19 11:39:19.750 ,5,1,0.,24.0,0.,24.0,0.,24.0,0.,24.0
1979-07-19 11:39:43.750 ,1,1,0.,24.0,0.,24.0,0.,24.0,0.,24.0
1979-07-19 11:40:07.750 ,2,1,0.,24.0,0.,24.0,0.,24.0,0.,24.0
1979-07-19 11:40:31.750 ,0,0,0.,24.0,0.,24.0,0.,24.0,0.,24.0
1979-07-19 11:41:10.750 ,0,0,,0,,0,,0,,0
1979-07-19 11:41:19.750 ,1,1,0.,24.0,0.,24.0,0.,24.0,0.,24.0
1979-07-19 11:41:43.750 ,0,0,0.,24.0,0.,24.0,0.,24.0,0.,24.0
1979-07-19 11:42:07.750 ,0,0,0.,24.0,0.,24.0,0.,24.0,0.,24.0
1979-07-19 11:42:31.750 ,5,1,0.,24.0,0.,24.0,0.,24.0,0.,24.0
1979-07-19 11:42:55.750 ,5,0,0.,24.0,0.,24.0,0.,24.0,0.,24.0
1979-07-19 11:43:19.750 ,4,1,0.,24.0,0.,24.0,0.,24.0,0.,24.0
1979-07-19 11:43:43.750 ,4,0,0.,24.0,0.,24.0,0.,24.0,0.,24.0
1979-07-19 11:44:07.750 ,3,1,0.,24.0,0.,24.0,0.,24.0,0.,24.0
1979-07-19 11:44:31.750 ,3,0,0.,24.0,0.,24.0,0.,24.0,0.,24.0
1979-07-19 11:44:55.750 ,2,1,0.,24.0,0.,24.0,0.,24.0,0.,24.0
1979-07-19 11:45:19.750 ,2,0,0.,24.0,0.,24.0,0.,24.0,0.,24.0
1979-07-19 11:45:43.750 ,1,1,0.,24.0,0.,24.0,0.,24.0,0.,24.0
1979-07-19 11:46:07.750 ,1,0,0.,24.0,0.,24.0,0.,24.0,0.,24.0
1979-07-19 11:46:31.750 ,0,1,0.,24.0,0.,24.0,0.,24.0,0.,24.0
1979-07-19 11:46:55.750 ,0,0,0.,24.0,0.,24.0,0.,24.0,0.,24.0
1979-07-19 11:47:19.750 ,0,1,0.,24.0,0.,24.0,0.,24.0,0.,24.0
1979-07-19 11:47:43.750 ,0,0,0.,24.0,0.,24.0,0.,24.0,0.,24.0
1979-07-19 11:48:07.750 ,1,1,0.,24.0,0.,24.0,0.,24.0,0.,24.0
1979-07-19 11:48:31.750 ,1,0,0.,24.0,0.,24.0,0.,24.0,0.,24.0
1979-07-19 11:48:55.750 ,2,1,0.,24.0,0.,24.0,0.,24.0,0.,24.0
1979-07-19 11:49:19.750 ,2,0,0.,24.0,0.,24.0,0.,24.0,0.,24.0
1979-07-19 11:49:43.750 ,3,1,0.,24.0,0.,24.0,0.,24.0,0.,24.0
1979-07-19 11:50:07.750 ,3,0,0.,24.0,0.,24.0,0.,24.0,0.,24.0
1979-07-19 11:50:31.750 ,4,1,0.,24.0,0.,24.0,0.,24.0,0.,24.0
1979-07-19 11:50:55.750 ,4,0,0.,24.0,0.,24.0,0.,24.0,0.,24.0
1979-07-19 11:51:19.750 ,5,1,0.,24.0,0.,24.0,0.,24.0,0.,24.0
1979-07-19 11:51:43.750 ,5,0,0.,24.0,0.,24.0,0.,24.0,0.,24.0
1979-07-19 11:52:07.750 ,6,1,0.,24.0,0.,24.0,0.,24.0,0.,24.0
1979-07-19 11:52:31.750 ,6,0,0.,24.0,0.,24.0,0.,24.0,0.,24.0
1979-07-19 11:52:55.750 ,7,1,0.,24.0,0.,24.0,0.,24.0,0.,24.0
1979-07-19 11:53:19.750 ,7,0,0.,24.0,0.,24.0,0.,24.0,0.,24.0
1979-07-19 11:53:43.750 ,7,1,0.,24.0,0.,24.0,0.,24.0,0.,24.0
1979-07-19 11:54:07.750 ,7,0,0.,24.0,0.,24.0,0.,24.0,0.,24.0
1979-07-19 11:54:31.750 ,6,1,0.,24.0,0.,24.0,0.,24.0,0.,24.0
1979-07-19 11:54:55.750 ,6,0,0.,24.0,0.,24.0,0.,24.0,0.,24.0
1979-07-19 11:55:19.750 ,5,1,0.,24.0,0.,24.0,0.,24.0,0.,24.0
1979-07-19 11:55:43.750 ,5,0,0.,24.0,0.,24.0,0.,24.0,0.,24.0
1979-07-19 11:56:07.750 ,4,1,0.,24.0,0.,24.0,0.,24.0,0.,24.0
1979-07-19 11:56:31.750 ,4,0,0.,24.0,0.,24.0,0.,24.0,0.,24.0
1979-07-19 11:56:55.750 ,3,1,0.,24.0,0.,24.0,0.,24.0,0.,24.0
1979-07-19 11:57:19.750 ,3,0,0.,24.0,0.,24.0,0.,24.0,0.,24.0
1979-07-19 11:57:43.750 ,2,1,0.,24.0,0.,24.0,0.,24.0,0.,24.0
1979-07-19 11:58:07.750 ,2,0,0.,24.0,0.,24.0,0.,24.0,0.,24.0
1979-07-19 11:58:31.750 ,1,1,0.,24.0,0.,24.0,0.,24.0,0.,24.0
1979-07-19 11:58:55.750 ,1,0,0.,24.0,0.,24.0,0.,24.0,0.,24.0
1979-07-19 11:59:19.750 ,0,1,0.,24.0,0.,24.0,0.,24.0,0.,24.0
1979-07-19 11:59:43.750 ,0,0,0.,24.0,0.,24.0,0.,24.0,0.,24.0
1979-07-19 12:00:07.750 ,0,1,0.,24.0,0.,24.0,0.,24.0,0.,24.0
